{"data":{"norad_id":41857,"epoch":"2026-09-20T05:17:51.668160Z","epoch_age_seconds":38483,"freshness":"FRESH","line1":"1 41857U 16068A   26263.22073690  .00000208  00000+0  92888-4 0  9992","line2":"2 41857  98.5876 273.3570 0004114 103.7606 256.4035 14.32516831515437","mean_motion":14.32516831,"eccentricity":0.0004114,"inclination_deg":98.5876,"raan_deg":273.357,"arg_perigee_deg":103.7606,"mean_anomaly_deg":256.4035,"bstar":9.2888e-5,"rev_number":51543,"period_min":100.52237913287,"perigee_km":780.38416942785,"apogee_km":786.2766248022,"semimajor_km":7161.467397115,"source":"CELESTRAK","updated_at":"2026-09-20T09:00:14.161026Z"}}